W1JCN Weather Reports


Display with metric or nautical units.
time (UTC)temp
F
wind
direction
speed
MPH
gust
MPH
rain 1hr
in
rain 24hr
in
rain mn
in
humidity
%
barometer
mb
20260905223222 67 313 0.0 3.0 0.00 0.00 0.00 77 1010.3
20260905222323 67 312 0.0 4.0 0.00 0.00 0.00 76 1010.2
20260905221422 68 311 1.0 8.0 0.00 0.00 0.00 74 1010.2
20260905220523 68 346 2.0 8.0 0.00 0.00 0.00 72 1010.3
20260905215623 68 316 2.0 10.0 0.00 0.00 0.00 75 1010.2
20260905214723 68 306 2.0 10.0 0.00 0.00 0.00 73 1010.0
20260905213823 68 317 2.0 9.0 0.00 0.00 0.00 73 1010.0
20260905212923 68 320 2.0 6.0 0.00 0.00 0.00 75 1009.8
20260905212022 68 309 2.0 9.0 0.00 0.00 0.00 73 1009.7
20260905211122 68 299 1.0 6.0 0.00 0.00 0.00 73 1009.7
20260905210223 68 309 1.0 8.0 0.00 0.00 0.00 72 1009.6
20260905205322 68 323 2.0 8.0 0.00 0.00 0.00 69 1009.6
20260905204422 69 309 2.0 8.0 0.00 0.00 0.00 71 1009.5
20260905203522 69 316 1.0 7.0 0.00 0.00 0.00 71 1009.4
20260905202623 69 270 1.0 5.0 0.00 0.00 0.00 71 1009.5
20260905201722 70 319 2.0 9.0 0.00 0.00 0.00 69 1009.4
20260905200822 70 333 1.0 8.0 0.00 0.00 0.00 70 1009.4
20260905195922 70 314 1.0 9.0 0.00 0.00 0.00 68 1009.5
20260905195022 70 319 2.0 9.0 0.00 0.00 0.00 69 1009.4
20260905194122 71 301 1.0 9.0 0.00 0.00 0.00 70 1009.3
20260905193222 71 322 2.0 11.0 0.00 0.00 0.00 70 1009.4
20260905192322 71 318 1.0 5.0 0.00 0.00 0.00 68 1009.3
20260905191422 71 304 2.0 7.0 0.00 0.00 0.00 67 1009.2
20260905190522 71 317 3.0 14.0 0.00 0.00 0.00 66 1009.2
20260905185622 71 303 3.0 12.0 0.00 0.00 0.00 68 1009.3
20260905184722 71 308 1.0 7.0 0.00 0.00 0.00 70 1009.3
20260905183822 70 328 1.0 9.0 0.00 0.00 0.00 69 1009.3
20260905182922 70 328 2.0 15.0 0.00 0.00 0.00 69 1009.2
20260905182022 71 324 3.0 15.0 0.00 0.00 0.00 68 1009.3
20260905181122 71 295 2.0 7.0 0.00 0.00 0.00 72 1009.2
20260905175322 71 313 2.0 10.0 0.00 0.00 0.00 69 1009.2
20260905174422 71 321 1.0 9.0 0.00 0.00 0.00 71 1009.2
20260905173522 70 313 1.0 8.0 0.00 0.00 0.00 71 1009.3
20260905172622 70 310 1.0 12.0 0.00 0.00 0.00 74 1009.4
20260905171722 69 303 1.0 8.0 0.00 0.00 0.00 76 1009.2
20260905170822 68 312 0.0 4.0 0.00 0.00 0.00 78 1009.2
20260905165922 68 308 1.0 7.0 0.00 0.00 0.00 75 1009.3
20260905165022 69 317 1.0 6.0 0.00 0.00 0.00 75 1009.3
20260905164122 70 307 1.0 8.0 0.00 0.00 0.00 74 1009.4
20260905163222 69 312 1.0 8.0 0.00 0.00 0.00 75 1009.4
20260905162322 68 320 1.0 9.0 0.00 0.00 0.00 74 1009.5
20260905161422 69 304 1.0 10.0 0.00 0.00 0.00 75 1009.4
20260905155622 69 313 2.0 8.0 0.00 0.00 0.00 73 1009.5
20260905154722 70 310 2.0 12.0 0.00 0.00 0.00 76 1009.6
20260905153822 69 306 2.0 12.0 0.00 0.00 0.00 76 1009.6
20260905152922 69 325 2.0 9.0 0.00 0.00 0.00 76 1009.6
20260905152022 69 311 2.0 12.0 0.00 0.00 0.00 73 1009.5
20260905151122 69 336 1.0 6.0 0.00 0.00 0.00 75 1009.6
20260905150222 68 319 1.0 5.0 0.00 0.00 0.00 77 1009.6
20260905145322 67 334 1.0 8.0 0.00 0.00 0.00 79 1009.5
20260905143522 65 292 1.0 5.0 0.00 0.00 0.00 84 1009.6
20260905141722 64 305 2.0 6.0 0.00 0.00 0.00 84 1009.8
20260905135922 63 296 1.0 6.0 0.00 0.00 0.00 86 1009.7
20260905135022 63 295 1.0 5.0 0.00 0.00 0.00 88 1009.7
20260905134122 62 324 1.0 9.0 0.00 0.00 0.00 89 1009.7
20260905133222 62 327 2.0 11.0 0.00 0.00 0.00 90 1009.6
20260905132322 61 329 1.0 8.0 0.00 0.00 0.00 91 1009.4
20260905131422 61 321 1.0 8.0 0.00 0.00 0.00 92 1009.4
20260905130522 60 312 1.0 6.0 0.00 0.00 0.00 93 1009.5
20260905125621 60 314 1.0 5.0 0.00 0.00 0.00 93 1009.3
20260905124722 60 315 1.0 5.0 0.00 0.00 0.00 93 1009.3
20260905122022 59 321 0.0 2.0 0.00 0.00 0.00 94 1009.2
20260905121121 59 320 0.0 1.0 0.00 0.00 0.00 94 1009.2
20260905120221 59 322 0.0 3.0 0.00 0.00 0.00 94 1009.2
20260905115321 59 306 0.0 5.0 0.00 0.00 0.00 94 1009.1
20260905114421 58 319 0.0 3.0 0.00 0.00 0.00 94 1009.2
20260905113521 58 315 1.0 8.0 0.00 0.00 0.00 94 1009.1
20260905111722 58 291 0.0 4.0 0.00 0.00 0.00 95 1008.9
20260905110821 57 289 0.0 3.0 0.00 0.00 0.00 95 1008.7
20260905104121 56 286 0.0 3.0 0.00 0.00 0.00 94 1008.5
20260905103221 55 292 0.0 4.0 0.00 0.00 0.00 94 1008.4
20260905102321 55 297 0.0 4.0 0.00 0.00 0.00 94 1008.5
20260905101421 54 303 0.0 3.0 0.00 0.00 0.00 94 1008.4
20260905100521 54 315 0.0 3.0 0.00 0.00 0.00 94 1008.3
20260905095621 54 0 0.0 0.0 0.00 0.00 0.00 94 1008.3
20260905094721 54 0 0.0 0.0 0.00 0.00 0.00 94 1008.2
20260905092921 54 314 0.0 1.0 0.00 0.00 0.00 94 1008.1
20260905091121 54 314 0.0 1.0 0.00 0.00 0.00 93 1008.0
20260905090221 54 0 0.0 0.0 0.00 0.00 0.00 93 1007.9
20260905085321 54 0 0.0 0.0 0.00 0.00 0.00 93 1008.1
20260905084421 54 0 0.0 0.0 0.00 0.00 0.00 93 1008.1
20260905083521 54 0 0.0 0.0 0.00 0.00 0.00 93 1008.1
20260905082621 54 0 0.0 0.0 0.00 0.00 0.00 93 1008.1
20260905081721 54 0 0.0 0.0 0.00 0.00 0.00 93 1008.1
20260905080821 54 0 0.0 0.0 0.00 0.00 0.00 93 1008.1
20260905075921 54 0 0.0 0.0 0.00 0.00 0.00 93 1008.1
20260905075021 54 0 0.0 0.0 0.00 0.00 0.00 93 1008.1
20260905074121 54 0 0.0 0.0 0.00 0.00 0.00 92 1008.1
20260905073221 54 0 0.0 0.0 0.00 0.00 0.00 93 1008.2
20260905072321 54 0 0.0 0.0 0.00 0.00 0.00 93 1008.3
20260905070521 55 0 0.0 0.0 0.00 0.00 0.00 92 1008.4
20260905065621 55 0 0.0 0.0 0.00 0.00 0.00 91 1008.5
20260905064721 55 0 0.0 0.0 0.00 0.00 0.00 91 1008.6
20260905062921 56 0 0.0 0.0 0.00 0.00 0.00 91 1008.7
20260905062021 56 0 0.0 0.0 0.00 0.00 0.00 91 1008.7
20260905060221 57 0 0.0 0.0 0.00 0.00 0.00 90 1008.8
20260905055321 58 0 0.0 0.0 0.00 0.00 0.00 90 1008.9
20260905053521 58 0 0.0 0.0 0.00 0.00 0.00 90 1008.7
20260905052620 59 0 0.0 0.0 0.00 0.00 0.00 90 1008.8
20260905051721 59 0 0.0 0.0 0.00 0.00 0.00 90 1008.9
20260905050820 59 0 0.0 0.0 0.00 0.00 0.00 89 1008.8
20260905045921 60 0 0.0 0.0 0.00 0.00 0.00 89 1008.9
20260905045021 60 0 0.0 0.0 0.00 0.00 0.00 89 1009.0
20260905044121 60 314 0.0 1.0 0.00 0.00 0.00 89 1008.9
20260905043220 60 320 0.0 5.0 0.00 0.00 0.00 88 1008.9
20260905042320 60 309 0.0 4.0 0.00 0.00 0.00 89 1008.8
20260905040521 60 309 0.0 4.0 0.00 0.00 0.00 90 1008.9
20260905035620 60 309 0.0 4.0 0.00 0.00 0.00 90 1008.8
20260905034720 60 0 0.0 0.0 0.00 0.00 0.00 90 1008.7
20260905033820 60 0 0.0 0.0 0.00 0.00 0.00 91 1008.7
20260905032920 60 318 0.0 3.0 0.00 0.00 0.00 91 1009.0
20260905032020 59 318 0.0 4.0 0.00 0.00 0.00 91 1008.8
20260905031120 59 318 0.0 2.0 0.00 0.00 0.00 92 1008.7
20260905030220 59 322 0.0 1.0 0.00 0.00 0.00 92 1008.9
20260905025321 59 0 0.0 0.0 0.00 0.00 0.00 92 1009.0
20260905024420 59 0 0.0 0.0 0.00 0.00 0.00 92 1009.0
20260905022620 59 322 0.0 1.0 0.00 0.00 0.00 92 1009.4
20260905021720 59 324 0.0 1.0 0.00 0.00 0.00 92 1009.4
20260905020820 59 0 0.0 0.0 0.00 0.00 0.00 91 1009.5
20260905015020 60 0 0.0 0.0 0.00 0.00 0.00 91 1009.6
20260905013220 60 0 0.0 0.0 0.00 0.00 0.00 90 1009.7
20260905011420 60 0 0.0 0.0 0.00 0.00 0.00 90 1009.6
20260905010520 60 0 0.0 0.0 0.00 0.00 0.00 89 1009.6
20260905005620 61 0 0.0 0.0 0.00 0.00 0.00 89 1009.5
20260905004720 61 0 0.0 0.0 0.00 0.00 0.00 89 1009.5
20260905003820 61 0 0.0 0.0 0.00 0.00 0.00 88 1009.5
20260905002920 62 0 0.0 0.0 0.00 0.00 0.00 88 1009.5
20260905002020 62 0 0.0 0.0 0.00 0.00 0.00 87 1009.4
20260905001120 63 0 0.0 0.0 0.00 0.00 0.00 87 1009.3
20260905000220 63 0 0.0 0.0 0.00 0.00 0.00 86 1009.2
20260904234420 64 0 0.0 0.0 0.00 0.00 0.00 84 1009.1
20260904233520 64 0 0.0 0.0 0.00 0.00 0.00 83 1009.1
20260904232620 65 0 0.0 0.0 0.00 0.00 0.00 84 1009.0
20260904231720 66 0 0.0 0.0 0.00 0.00 0.00 83 1009.0
20260904230820 66 0 0.0 0.0 0.00 0.00 0.00 82 1008.9
20260904225920 67 0 0.0 0.0 0.00 0.00 0.00 81 1008.9
20260904225020 68 0 0.0 0.0 0.00 0.00 0.00 80 1009.0